Hourly Data Report for September 17, 2020

GIMLI CLIMATE
MANITOBA
Current Station Operator: ECCC - MSC

50°38'00.000" N
97°03'00.000" W
230.10 m
5031042
71748
PGH

Download Data

Hourly Data (September 2020)
Hourly Data Report for September 17, 2020
TIME Temp Definition
°C
Dew Point Definition
°C
Rel Hum Definition
%
Wind Dir Definition
10's deg

Wind Spd Definition
km/h
Visibility Definition
km
Stn Press Definition
kPa
Hmdx Definition


Wind Chill Definition


Weather Definition


00:00 3.7 -2.3 65 28 7   99.69     LegendNANA
01:00 3.5 -2.5 65 27 7   99.72     LegendNANA
02:00 3.1 -3.1 63 27 6   99.71     LegendNANA
03:00 1.5 -3.1 71 29 7   99.73     LegendNANA
04:00 0.7 -3.4 74 27 5   99.77     LegendNANA
05:00 -0.7 -3.7 80 26 4   99.80   -2 LegendNANA
06:00 -1.2 -3.6 84 27 4   99.86   -3 LegendNANA
07:00 0.0 -2.7 82 24 5   99.89   -2 LegendNANA
08:00 5.7 -0.8 63 23 9   99.91     LegendNANA
09:00 8.3 -1.2 51 25 11   99.96     LegendNANA
10:00 9.5 0.6 54 28 11   99.99     LegendNANA
11:00 10.3 -3.1 39 29 11   100.00     LegendNANA
12:00 11.9 -4.3 32 25 9   99.97     LegendNANA
13:00 11.7 -9.2 22 33 10   99.97     LegendNANA
14:00 11.9 -3.1 35 6 7   99.95     LegendNANA
15:00 11.7 -1.1 41 9 11   99.93     LegendNANA
16:00 11.5 -2.1 39 9 9   99.92     LegendNANA
17:00 11.2 -2.2 39 14 8   99.91     LegendNANA
18:00 10.4 -1.9 42 14 7   99.92     LegendNANA
19:00 6.5 -1.8 56 19 2   99.93     LegendNANA
20:00 3.8 -2.4 64 24 9   99.97     LegendNANA
21:00 2.7 -3.5 64 23 4   99.99     LegendNANA
22:00 1.6 -2.7 73 26 2   99.99     LegendNANA
23:00 -0.5 -3.7 79 26 3   99.99   -1 LegendNANA

Notes on Data Quality.

Legend

  • E = Estimated
  • M = Missing
  • NA = Not Available*
  • [empty] = Indicates an unobserved value
Date modified: